DateTimeUTC,F1_A11,F1_S11,BsB_S11,BsG_S11,BsR_S11,BbsB_S11,BbsG_S11,BbsR_S11,BaB_A11,BaG_A11,BaR_A11,Tu_S11,T_S11,Uu_S11,U_S11,P_S11,T1_A11
2021-10-30T13:00:00Z,00000200,21000000,,,,,,,-000.38,0000.23,-000.31,17.5,24.6,,00.0,0646.6,31.0
2021-10-30T13:01:00Z,00000200,21000000,,,,,,,0000.35,0000.36,-000.03,17.5,24.6,,00.0,0646.6,31.0
2021-10-30T13:02:00Z,00000200,21000000,,,,,,,0000.10,-000.44,0000.27,17.4,24.6,,00.0,0646.6,31.0
2021-10-30T13:03:00Z,00000200,61000000,,,,,,,0000.07,0000.12,-000.07,17.4,24.6,,00.0,0646.6,31.0
2021-10-30T13:04:00Z,00000200,41000000,0000.54,0000.01,0000.15,0000.29,0000.05,0000.05,0000.48,0000.44,0000.36,17.4,24.3,,00.0,0647.4,31.0
2021-10-30T13:05:00Z,00000200,01000000,0001.01,0000.40,-000.01,0000.06,0000.15,0000.05,0000.06,-000.17,-000.20,17.4,24.3,,00.0,0647.5,31.0
2021-10-30T13:06:00Z,00000200,01000000,0001.11,0000.34,0000.15,0000.77,0000.19,-000.18,-000.06,0000.31,0000.20,17.4,24.3,,00.0,0647.5,31.0
2021-10-30T13:07:00Z,00000200,01000000,0001.61,0000.50,0000.02,0000.44,0000.17,0000.05,0000.11,0000.12,0000.22,17.5,24.3,,00.0,0647.5,31.0
2021-10-30T13:08:00Z,00000200,01000000,0000.97,0000.15,0000.17,0000.19,-000.05,0000.01,0000.41,0000.25,0000.08,17.5,24.3,,00.0,0647.5,31.0
2021-10-30T13:09:00Z,00000200,01000000,0000.90,0000.33,0000.02,0000.50,0000.12,-000.04,0000.19,0000.64,0000.49,17.6,24.3,,00.0,0647.5,31.0
2021-10-30T13:10:00Z,00000200,01000000,-000.64,0000.12,-000.00,-000.58,0000.20,-000.03,0000.51,0000.34,0000.40,17.6,24.3,,00.0,0647.5,31.0
2021-10-30T13:11:00Z,00000200,01000000,0000.29,0000.30,-000.09,-000.08,0000.03,-000.36,0000.35,0000.23,-000.08,17.7,24.3,,00.0,0647.5,31.0
2021-10-30T13:12:00Z,00000200,01000000,0000.94,0000.29,0000.15,0000.02,0000.50,0000.03,0000.33,-000.26,0000.25,17.8,24.4,,00.0,0647.6,31.0
2021-10-30T13:13:00Z,00000200,01000000,0000.31,0000.15,0000.23,0000.32,0000.11,-000.08,-000.17,-000.02,0000.21,17.8,24.4,,00.0,0647.6,31.0
2021-10-30T13:14:00Z,00000200,01000000,0000.77,0000.42,0000.03,0000.11,-000.05,0000.08,-000.23,0000.34,-000.12,17.9,24.4,,00.0,0647.6,31.0
2021-10-30T13:15:00Z,00000200,01000000,0000.63,0000.47,0000.04,-000.35,0000.26,-000.39,0000.12,-000.28,-000.36,17.9,24.4,,00.0,0647.6,31.1
2021-10-30T13:16:00Z,00000200,01000000,0000.55,0000.40,-000.13,-000.07,0000.18,-000.15,0000.35,0000.30,0000.26,17.9,24.5,,00.0,0647.6,31.0
2021-10-30T13:17:00Z,00000200,01000000,0000.94,0000.33,0000.06,0000.06,0000.08,-000.16,0000.32,0000.22,0000.06,17.9,24.5,,00.0,0647.6,31.0
2021-10-30T13:18:00Z,00000200,01000000,0001.24,0000.14,-000.07,0001.00,0000.18,0000.00,0000.10,0000.50,0000.23,17.8,24.4,,00.0,0647.6,31.0
2021-10-30T13:19:00Z,00000200,01000000,0001.27,0000.23,0000.10,0000.59,0000.40,0000.05,0000.32,-000.02,0000.51,17.8,24.4,,00.0,0647.5,31.0
2021-10-30T13:20:00Z,00000200,01000000,0000.50,0000.00,-000.00,-000.08,0000.09,0000.06,0000.68,0000.65,0000.25,17.7,24.3,,00.0,0647.5,31.0
2021-10-30T13:21:00Z,00000200,01000000,0001.48,0000.06,-000.43,0000.31,0000.23,-000.10,0000.43,0000.48,0000.39,17.7,24.4,,00.0,0647.5,31.0
2021-10-30T13:22:00Z,00000200,01000000,0000.87,0000.42,0000.21,0000.14,-000.00,0000.13,0000.61,0000.40,0000.75,17.8,24.4,,00.0,0647.5,31.0
2021-10-30T13:23:00Z,00000200,01000000,0000.69,-000.15,0000.08,-000.12,0000.17,-000.06,0000.98,0000.60,0000.39,17.8,24.4,,00.0,0647.5,31.0
2021-10-30T13:24:00Z,00000200,01000000,0000.01,0000.45,-000.07,0000.37,0000.17,0000.07,0000.78,0000.99,0000.46,17.9,24.4,,00.0,0647.5,31.0
2021-10-30T13:25:00Z,00000200,01000000,0000.74,0000.23,-000.08,0000.20,0000.04,0000.26,0000.24,0000.27,0000.66,17.9,24.4,,00.0,0647.5,31.0
2021-10-30T13:26:00Z,00000200,01000000,0000.57,0000.31,-000.27,0000.16,0000.29,0000.12,0000.42,0000.56,-000.18,18.0,24.4,,00.0,0647.5,31.0
2021-10-30T13:27:00Z,00000200,01000000,0000.45,0000.49,-000.17,0000.13,0000.31,-000.27,0000.19,0000.12,0000.25,18.0,24.5,,00.0,0647.5,31.0
2021-10-30T13:28:00Z,00000200,01000000,0001.11,0000.51,0000.17,0000.44,0000.18,0000.09,-000.01,0000.10,0000.26,18.0,24.5,,00.0,0647.5,31.0
2021-10-30T13:29:00Z,00000200,01000000,0000.12,-000.04,-000.00,0000.02,0000.04,-000.00,0000.10,0000.56,0000.24,18.0,24.5,,00.0,0647.4,31.0
2021-10-30T13:30:00Z,00000200,01000000,0000.76,0000.31,-000.00,-000.32,0000.07,-000.24,-000.18,-000.42,-000.32,17.9,24.5,,00.0,0647.5,31.0
2021-10-30T13:31:00Z,00000200,01000000,0000.78,0000.04,0000.11,-000.10,0000.04,-000.07,-000.01,-000.20,-000.07,17.8,24.4,,00.0,0647.5,31.0
2021-10-30T13:32:00Z,00000200,01000000,0000.65,0000.09,-000.00,0000.27,0000.37,0000.10,-000.57,-000.46,-000.49,17.7,24.4,,00.0,0647.5,31.0
2021-10-30T13:33:00Z,00000200,01000000,0000.20,-000.01,0000.41,0000.63,0000.23,0000.21,-000.54,-000.61,-000.59,17.6,24.3,,00.0,0647.6,30.9
2021-10-30T13:34:00Z,00000200,01000000,0000.01,-000.14,-000.00,-000.10,0000.05,0000.08,-000.35,-000.37,-000.20,17.5,24.3,,00.0,0647.6,30.9
2021-10-30T13:35:00Z,00000200,01000000,0000.63,0000.05,-000.05,0000.38,-000.07,0000.05,-000.23,-000.31,-000.18,17.5,24.2,,00.0,0647.6,30.9
2021-10-30T13:36:00Z,00000200,01000000,0000.55,0000.12,0000.48,0000.57,0000.19,0000.26,-000.20,-000.49,-000.40,17.5,24.2,,00.0,0647.6,31.0
2021-10-30T13:37:00Z,00000200,01000000,0000.27,0000.28,0000.18,-000.32,0000.10,0000.08,0000.26,-000.02,0000.26,17.6,24.2,,00.0,0647.6,31.0
2021-10-30T13:38:00Z,00000200,01000000,0000.80,0000.08,-000.08,0000.28,0000.06,-000.06,-000.06,0000.03,-000.33,17.6,24.2,,00.0,0647.7,31.0
2021-10-30T13:39:00Z,00000200,01000000,0001.23,0000.52,-000.40,0000.55,0000.46,-000.14,0000.07,0000.18,0000.31,17.6,24.3,,00.0,0647.6,31.0
2021-10-30T13:40:00Z,00000200,01000000,0000.51,0000.10,0000.17,0000.03,0000.38,0000.09,-000.47,-000.32,-000.01,17.7,24.3,,00.0,0647.7,31.0
2021-10-30T13:41:00Z,00000200,01000000,0001.30,0000.06,-000.06,-000.20,0000.17,0000.21,0000.32,0000.26,-000.20,17.7,24.3,,00.0,0647.7,31.0
2021-10-30T13:42:00Z,00000200,01000000,-000.04,0000.67,0000.21,-000.25,0000.20,0000.07,0000.01,0000.17,0000.12,17.8,24.3,,00.0,0647.7,31.0
2021-10-30T13:43:00Z,00000200,01000000,0001.42,0000.16,0000.02,0000.61,0000.04,0000.23,0000.27,0000.13,0000.35,17.8,24.3,,00.0,0647.8,31.0
2021-10-30T13:44:00Z,00000200,01000000,0000.87,0000.20,0000.16,0000.21,0000.14,0000.32,0000.09,0000.18,-000.06,17.9,24.4,,00.0,0647.8,31.0
2021-10-30T13:45:00Z,00000200,01000000,0001.44,0000.06,0000.15,-000.14,0000.23,0000.33,0000.14,0000.52,-000.02,17.9,24.4,,00.0,0647.8,31.0
2021-10-30T13:46:00Z,00000200,01000000,0001.13,0000.27,0000.45,0000.20,0000.29,0000.02,0000.63,0000.14,0000.40,18.0,24.4,,00.0,0647.8,31.0
2021-10-30T13:47:00Z,00000200,01000000,0000.80,0000.10,0000.04,0000.43,0000.20,-000.48,0000.38,0000.42,0000.30,18.0,24.4,,00.0,0647.8,31.0
2021-10-30T13:48:00Z,00000200,01000000,0000.74,0000.25,-000.03,0000.41,-000.00,-000.01,-000.11,-000.32,0000.03,18.0,24.5,,00.0,0647.8,31.0
2021-10-30T13:49:00Z,00000200,01000000,0000.59,0000.29,0000.09,0000.15,0000.35,-000.15,-000.03,0000.50,0000.07,17.9,24.4,,00.0,0647.8,31.0
2021-10-30T13:50:00Z,00000200,01000000,0000.74,0000.42,0000.05,0000.56,-000.01,-000.08,0000.08,-000.12,0000.14,17.9,24.4,,00.0,0647.8,31.0
2021-10-30T13:51:00Z,00000200,01000000,0001.01,0000.28,0000.17,0000.39,0000.28,0000.13,0000.44,0000.05,0000.15,17.9,24.4,,00.0,0647.7,31.0
2021-10-30T13:52:00Z,00000200,01000000,0000.57,0000.42,0000.05,-000.61,0000.39,-000.17,0000.11,0000.29,-000.10,17.9,24.5,,00.0,0647.7,31.0
2021-10-30T13:53:00Z,00000200,01000000,0000.84,0000.31,0000.14,-000.02,0000.54,-000.16,0000.46,0000.38,0000.37,18.0,24.5,,00.0,0647.7,31.0
2021-10-30T13:54:00Z,00000200,01000000,0000.97,0000.33,0000.23,0000.23,0000.12,0000.12,0000.15,0000.31,-000.06,18.0,24.5,,00.0,0647.7,31.0
2021-10-30T13:55:00Z,00000200,01000000,0000.69,0000.22,0000.03,-000.11,-000.11,0000.09,0000.18,0000.42,0000.39,18.0,24.5,,00.0,0647.7,31.0
2021-10-30T13:56:00Z,00000200,01000000,0000.30,0000.15,0000.09,-000.10,0000.25,0000.09,0000.86,0000.04,0000.25,18.1,24.5,,00.0,0647.7,31.0
2021-10-30T13:57:00Z,00000200,41000000,,,,,,,0000.69,0001.17,0000.97,18.1,24.6,,00.0,0647.7,31.0
2021-10-30T13:58:00Z,00000200,61000000,,,,,,,-000.34,-000.38,-000.33,17.8,24.6,,00.0,0646.8,31.0
2021-10-30T13:59:00Z,00000200,21000000,,,,,,,-000.11,-000.19,-000.29,17.7,24.7,,00.0,0646.8,31.0
